| time (UTC) | temp C | wind direction | speed KPH | gust KPH | rain 1hr cm | rain 24hr cm | rain mn cm | humidity % | barometer mb |
| 20260505004518 | 24 | 323 | 1.6 | 6.4 | 0.00 | 0.00 | 0.00 | 53 | 1010.4 |
| 20260505003015 | 25 | 239 | 1.6 | 6.4 | 0.00 | 0.00 | 0.00 | 49 | 1010.3 |
| 20260505001524 | 26 | 280 | 0.0 | 9.7 | 0.00 | 0.00 | 0.00 | 49 | 1010.3 |
| 20260505000026 | 26 | 232 | 3.2 | 11.3 | 0.00 | 0.00 | 0.00 | 46 | 1010.2 |
| 20260504234510 | 27 | 236 | 1.6 | 11.3 | 0.00 | 0.00 | 0.00 | 47 | 1010.2 |
| 20260504233013 | 27 | 259 | 0.0 | 6.4 | 0.00 | 0.00 | 0.00 | 46 | 1010.2 |
| 20260504231520 | 27 | 269 | 1.6 | 9.7 | 0.00 | 0.00 | 0.00 | 47 | 1010.1 |
| 20260504230025 | 28 | 97 | 0.0 | 8.0 | 0.00 | 0.00 | 0.00 | 45 | 1010.2 |
| 20260504224524 | 28 | 252 | 0.0 | 9.7 | 0.00 | 0.00 | 0.00 | 45 | 1010.3 |
| 20260504223014 | 27 | 277 | 3.2 | 12.9 | 0.00 | 0.00 | 0.00 | 42 | 1010.5 |
| 20260504221516 | 27 | 16 | 3.2 | 9.7 | 0.00 | 0.00 | 0.00 | 43 | 1010.5 |
| 20260504220036 | 27 | 278 | 1.6 | 9.7 | 0.00 | 0.00 | 0.00 | 46 | 1010.6 |
| 20260504214526 | 28 | 42 | 3.2 | 11.3 | 0.00 | 0.00 | 0.00 | 48 | 1010.8 |
| 20260504213027 | 27 | 300 | 0.0 | 6.4 | 0.00 | 0.00 | 0.00 | 45 | 1010.9 |
| 20260504211524 | 27 | 106 | 1.6 | 9.7 | 0.00 | 0.00 | 0.00 | 47 | 1011.0 |
| 20260504210018 | 26 | 171 | 3.2 | 8.0 | 0.00 | 0.00 | 0.00 | 48 | 1011.2 |
| 20260504204527 | 26 | 200 | 3.2 | 9.7 | 0.00 | 0.00 | 0.00 | 48 | 1011.3 |
| 20260504203028 | 25 | 5 | 0.0 | 6.4 | 0.00 | 0.00 | 0.00 | 50 | 1011.4 |
| 20260504201528 | 25 | 89 | 3.2 | 8.0 | 0.00 | 0.00 | 0.00 | 50 | 1011.5 |
| 20260504200016 | 25 | 120 | 3.2 | 6.4 | 0.00 | 0.00 | 0.00 | 50 | 1011.7 |
| 20260504194520 | 24 | 115 | 1.6 | 9.7 | 0.00 | 0.00 | 0.00 | 52 | 1011.9 |
| 20260504193026 | 24 | 86 | 1.6 | 9.7 | 0.00 | 0.00 | 0.00 | 53 | 1012.1 |
| 20260504191526 | 23 | 215 | 3.2 | 9.7 | 0.00 | 0.00 | 0.00 | 56 | 1012.1 |
| 20260504190028 | 23 | 172 | 6.4 | 9.7 | 0.00 | 0.00 | 0.00 | 56 | 1012.1 |
| 20260504184520 | 22 | 229 | 3.2 | 9.7 | 0.00 | 0.00 | 0.00 | 57 | 1012.3 |
| 20260504183003 | 22 | 176 | 4.8 | 11.3 | 0.00 | 0.00 | 0.00 | 57 | 1012.3 |
| 20260504181514 | 21 | 157 | 1.6 | 8.0 | 0.00 | 0.00 | 0.00 | 58 | 1012.4 |
| 20260504180012 | 21 | 124 | 3.2 | 8.0 | 0.00 | 0.00 | 0.00 | 59 | 1012.4 |
| 20260504174514 | 20 | 154 | 0.0 | 11.3 | 0.00 | 0.00 | 0.00 | 62 | 1012.4 |
| 20260504173010 | 20 | 99 | 3.2 | 6.4 | 0.00 | 0.00 | 0.00 | 63 | 1012.5 |
| 20260504171547 | 20 | 167 | 4.8 | 8.0 | 0.00 | 0.00 | 0.00 | 64 | 1012.4 |
| 20260504081527 | 11 | 258 | 0.0 | 0.0 | 0.00 | 0.00 | 0.00 | 90 | 1009.6 |
| 20260504050019 | 15 | 258 | 0.0 | 0.0 | 0.00 | 0.00 | 0.00 | 79 | 1009.5 |
| 20260504044525 | 16 | 258 | 0.0 | 0.0 | 0.00 | 0.00 | 0.00 | 77 | 1009.4 |
| 20260504043026 | 16 | 258 | 0.0 | 0.0 | 0.00 | 0.00 | 0.00 | 76 | 1009.3 |
| 20260504041526 | 17 | 258 | 0.0 | 0.0 | 0.00 | 0.00 | 0.00 | 75 | 1009.0 |
| 20260504040014 | 18 | 258 | 0.0 | 0.0 | 0.00 | 0.00 | 0.00 | 71 | 1008.9 |
| 20260504034530 | 18 | 258 | 0.0 | 0.0 | 0.00 | 0.00 | 0.00 | 69 | 1008.5 |
| 20260504033036 | 20 | 258 | 0.0 | 0.0 | 0.00 | 0.00 | 0.00 | 67 | 1008.4 |
| 20260504031530 | 21 | 258 | 0.0 | 0.0 | 0.00 | 0.00 | 0.00 | 63 | 1008.2 |
| 20260504030012 | 22 | 258 | 0.0 | 0.0 | 0.00 | 0.00 | 0.00 | 61 | 1008.2 |
| 20260504024535 | 23 | 259 | 0.0 | 0.0 | 0.00 | 0.00 | 0.00 | 55 | 1008.1 |
| 20260504023020 | 25 | 259 | 0.0 | 1.6 | 0.00 | 0.00 | 0.00 | 49 | 1008.0 |
| 20260504021526 | 26 | 259 | 0.0 | 6.4 | 0.00 | 0.00 | 0.00 | 40 | 1008.0 |
| 20260504020024 | 27 | 274 | 0.0 | 6.4 | 0.00 | 0.00 | 0.00 | 37 | 1008.1 |
| 20260504014516 | 28 | 296 | 1.6 | 6.4 | 0.00 | 0.00 | 0.00 | 34 | 1008.2 |
| 20260504013020 | 28 | 283 | 0.0 | 8.0 | 0.00 | 0.00 | 0.00 | 34 | 1008.2 |
| 20260504011524 | 28 | 297 | 0.0 | 6.4 | 0.00 | 0.00 | 0.00 | 31 | 1008.3 |
| 20260504010028 | 29 | 305 | 3.2 | 12.9 | 0.00 | 0.00 | 0.00 | 30 | 1008.2 |